Starlink 30566

operational
NORAD ID: 58054 Int'l Des: 2023-158 Owner: SPXS Country: US Constellation: starlink
LEOCIRCULAR

Starlink 30566について

説明を読み込み中...

リアルタイム位置

3D地球を読み込み中...

次回通過

高度履歴

Altitude vs Time

uPlot chart will show altitude changes over time

軌道要素

1 58054U 23158D 25352.81378138 -.00025750 00000-0 -18989-2 0 9995
2 58054 43.0033 109.9476 0002512 16.2827 343.8096 15.02517037121366
Epoch: Dec 18, 2025 • Age: 20 hours

現在のステータス

高度 569.4 km
速度 7.58 km/s
衛星直下点 -31.35°S, 2.01°E
打ち上げ日 Oct 13, 2023
運用期間 2.1 years
タイプ internet

技術仕様

分類 Payload
質量 730.00 kg
乾燥質量 700.00 kg
総質量 730.00 kg
長さ 0.30 m
直径 4.10 m
スパン 29.00 m
形状 Box + pan
製造者 SPXS
バスタイプ Starlink V2M
フェーズステータス In Orbit
所有者/国 SPXS/US

大規模コンステレーション

Loading constellations...